Weather History for Hamilton Island, Queensland

Change the Weather History Date:

Tuesday, June 4, 2013

  Actual Average Record
Temperature  
Mean Temperature 68 °F -  
Max Temperature 69 °F - - ()
Min Temperature 66 °F - - ()
Cooling Degree Days 2    
Growing Degree Days 18 (Base 50)    
Moisture  
Dew Point 61 °F    
Average Humidity 78    
Maximum Humidity 88    
Minimum Humidity 64    
Precipitation  
Precipitation 0.01 in - - ()
Sea Level Pressure  
Sea Level Pressure 30.11 in    
Wind  
Wind Speed 24 mph ()    
Max Wind Speed 32 mph    
Max Gust Speed -    
T = Trace of Precipitation, MM = Missing Value Source: Averaged Metar Reports

Daily Weather History Graph

Daily Weather History Graph

Search for Another Location

Airport:

Trip Planner

Search our weather history database for the weather conditions in past years. The results will help you decide how hot, cold, wet, or windy it might be!

Date:

Astronomy

Jun. 04, 2013 Rise Set
Actual Time 6:33 AM AEST 5:31 PM AEST
Civil Twilight 6:09 AM AEST 5:54 PM AEST
Nautical Twilight 5:42 AM AEST 6:22 PM AEST
Astronomical Twilight 5:15 AM AEST 6:49 PM AEST
Moon 2:31 AM AEST (6/4) 2:21 PM AEST (6/4)
Length of Visible Light 11h 45m
Length of Day
10h 57m
Waning Crescent, 19% of the Moon is Illuminated
Jun 4
Waning Crescent
Jun 9
New
Jun 17
First Quarter
Jun 23
Full
Jun 30
Last Quarter

Hourly Weather History & Observations

Time (AEST) Temp. Dew Point Humidity Pressure Visibility Wind Dir Wind Speed Gust Speed Precip Events Conditions
12:00 AM 69 °F 60 °F 66% 30.10 in - SE 23.0 mph - -  
12:00 AM 69.8 °F 60.8 °F 73% 30.09 in - SE 23.0 mph - N/A   Unknown
12:30 AM 69.8 °F 57.2 °F 64% 30.09 in - ESE 25.3 mph - N/A   Unknown
1:00 AM 69.8 °F 59.0 °F 68% 30.09 in - SE 24.2 mph - N/A   Unknown
1:30 AM 69.8 °F 59.0 °F 68% 30.06 in - SE 24.2 mph - N/A   Unknown
2:00 AM 69.8 °F 57.2 °F 64% 30.06 in - SE 25.3 mph - N/A   Unknown
2:30 AM 68.0 °F 59.0 °F 73% 30.06 in - SE 23.0 mph - N/A   Unknown
3:00 AM 67 °F 58 °F 67% 30.07 in - SSE 24.2 mph - -  
3:00 AM 68.0 °F 59.0 °F 73% 30.06 in - SSE 24.2 mph - N/A   Unknown
3:30 AM 68.0 °F 59.0 °F 73% 30.06 in - SSE 23.0 mph - N/A   Unknown
4:00 AM 66.2 °F 59.0 °F 78% 30.06 in - SSE 21.9 mph - N/A   Unknown
4:30 AM 66.2 °F 59.0 °F 78% 30.06 in - SSE 24.2 mph - N/A   Unknown
5:00 AM 66.2 °F 59.0 °F 78% 30.06 in - SSE 24.2 mph - N/A   Unknown
5:30 AM 66.2 °F 59.0 °F 78% 30.06 in - SSE 26.5 mph - N/A   Unknown
6:00 AM 67 °F 60 °F 71% 30.10 in - SSE 24.2 mph - -  
6:00 AM 66.2 °F 59.0 °F 78% 30.09 in - SSE 24.2 mph - N/A   Unknown
6:30 AM 66.2 °F 59.0 °F 78% 30.09 in - SSE 26.5 mph - N/A   Unknown
7:00 AM 66.2 °F 59.0 °F 78% 30.09 in - SSE 27.6 mph - N/A   Unknown
7:30 AM 66.2 °F 57.2 °F 73% 30.12 in - SSE 31.1 mph - N/A   Unknown
8:00 AM 68.0 °F 57.2 °F 68% 30.12 in - SSE 29.9 mph - N/A   Unknown
8:30 AM 68.0 °F 59.0 °F 73% 30.15 in - SSE 31.1 mph - N/A   Unknown
9:00 AM 67 °F 58 °F 66% 30.15 in - SSE 31.1 mph - -  
9:00 AM 68.0 °F 59.0 °F 73% 30.15 in - SSE 31.1 mph - N/A   Unknown
9:30 AM 68.0 °F 60.8 °F 78% 30.15 in - SSE 29.9 mph - N/A   Unknown
10:00 AM 68.0 °F 60.8 °F 78% 30.15 in - SSE 31.1 mph - N/A   Unknown
10:30 AM 68.0 °F 60.8 °F 78% 30.15 in - SE 32.2 mph - N/A   Unknown
11:00 AM 68.0 °F 60.8 °F 78% 30.15 in - SSE 31.1 mph - N/A   Unknown
11:30 AM 68.0 °F 60.8 °F 78% 30.12 in - SSE 29.9 mph - N/A   Unknown
12:00 PM 68.0 °F 60.8 °F 78% 30.12 in - SSE 31.1 mph - N/A   Unknown
12:30 PM 68.0 °F 60.8 °F 78% 30.12 in - SE 28.8 mph - N/A   Unknown
1:00 PM 68.0 °F 62.6 °F 83% 30.09 in - SSE 28.8 mph - N/A   Unknown
1:30 PM 68.0 °F 62.6 °F 83% 30.09 in - SSE 29.9 mph - N/A   Unknown
2:00 PM 68.0 °F 62.6 °F 83% 30.09 in - SSE 27.6 mph - N/A   Unknown
2:30 PM 68.0 °F 62.6 °F 83% 30.09 in - SSE 25.3 mph - N/A   Unknown
3:00 PM 68 °F 62 °F 76% 30.09 in - SSE 24.2 mph - -  
3:00 PM 68.0 °F 62.6 °F 83% 30.09 in - SSE 24.2 mph - N/A   Unknown
3:30 PM 68.0 °F 62.6 °F 83% 30.06 in - SSE 25.3 mph - N/A   Unknown
4:00 PM 68.0 °F 62.6 °F 83% 30.09 in - SE 24.2 mph - N/A   Unknown
4:30 PM 68.0 °F 62.6 °F 83% 30.09 in - SSE 23.0 mph - N/A   Unknown
5:00 PM 68.0 °F 62.6 °F 83% 30.09 in - SSE 24.2 mph - N/A   Unknown
5:30 PM 68.0 °F 62.6 °F 83% 30.09 in - SSE 25.3 mph - N/A   Unknown
6:00 PM 68 °F 64 °F 82% 30.12 in - SSE 27.6 mph - -  
6:00 PM 68.0 °F 64.4 °F 88% 30.09 in - SSE 27.6 mph - N/A   Unknown
6:30 PM 68.0 °F 64.4 °F 88% 30.12 in - SSE 26.5 mph - N/A   Unknown
7:00 PM 68.0 °F 64.4 °F 88% 30.12 in - SSE 23.0 mph - N/A   Unknown
7:30 PM 69.8 °F 64.4 °F 83% 30.12 in - SE 21.9 mph - N/A   Unknown
8:00 PM 69.8 °F 64.4 °F 83% 30.15 in - SE 20.7 mph - N/A   Unknown
8:30 PM 69.8 °F 64.4 °F 83% 30.15 in - SE 26.5 mph - N/A   Unknown
9:00 PM 69 °F 65 °F 84% 30.15 in - SE 26.5 mph - -  
9:00 PM 69.8 °F 64.4 °F 83% 30.15 in - SE 26.5 mph - N/A   Unknown
9:30 PM 68.0 °F 64.4 °F 88% 30.15 in - SE 25.3 mph - N/A   Unknown
10:00 PM 69.8 °F 64.4 °F 83% 30.15 in - SE 25.3 mph - N/A   Unknown
10:30 PM 69.8 °F 66.2 °F 88% 30.15 in - SE 25.3 mph - N/A   Unknown
11:00 PM 69.8 °F 66.2 °F 88% 30.12 in - SE 25.3 mph - N/A   Unknown
11:30 PM 69.8 °F 64.4 °F 83% 30.12 in - SE 28.8 mph - N/A   Unknown